Time,TemperatureF,DewpointF,PressureIn,WindDirection,WindDirectionDegrees,WindSpeedMPH,WindSpeedGustMPH,Humidity,HourlyPrecipIn,Conditions,Clouds,dailyrainin,SoftwareType,DateUTC
2013-02-09 00:00:00,58.4,53.6,29.98,WNW,302,0.0,0.0,84,0.00,,,0.00,Wunderground v.1.15,2013-02-09 05:00:00,
2013-02-09 00:02:00,58.4,53.6,29.98,WNW,302,0.0,0.0,84,0.00,,,0.00,Wunderground v.1.15,2013-02-09 05:02:00,
2013-02-09 00:06:00,58.3,53.5,29.98,WNW,302,0.0,0.0,84,0.00,,,0.00,Wunderground v.1.15,2013-02-09 05:06:00,
2013-02-09 00:11:00,58.3,53.5,29.98,WNW,302,0.0,0.0,84,0.00,,,0.00,Wunderground v.1.15,2013-02-09 05:11:00,
2013-02-09 00:16:00,58.0,53.2,29.98,WNW,302,0.0,0.0,84,0.00,,,0.00,Wunderground v.1.15,2013-02-09 05:16:00,
2013-02-09 00:21:00,58.0,53.2,29.98,WNW,302,0.0,0.0,84,0.00,,,0.00,Wunderground v.1.15,2013-02-09 05:21:00,
2013-02-09 00:26:00,57.8,53.0,29.98,WNW,302,0.0,0.0,84,0.00,,,0.00,Wunderground v.1.15,2013-02-09 05:26:00,
2013-02-09 00:30:00,57.6,52.8,29.98,WNW,302,0.0,0.0,84,0.00,,,0.00,Wunderground v.1.15,2013-02-09 05:30:00,
2013-02-09 00:35:00,57.6,52.8,29.98,WNW,302,0.0,0.0,84,0.00,,,0.00,Wunderground v.1.15,2013-02-09 05:35:00,
2013-02-09 00:40:00,57.5,52.7,29.98,WNW,302,0.0,0.0,84,0.00,,,0.00,Wunderground v.1.15,2013-02-09 05:40:00,
2013-02-09 00:46:00,57.3,52.5,29.97,WNW,302,0.0,0.0,84,0.00,,,0.00,Wunderground v.1.15,2013-02-09 05:46:00,
2013-02-09 00:51:00,57.2,52.4,29.97,WNW,302,0.0,0.0,84,0.00,,,0.00,Wunderground v.1.15,2013-02-09 05:51:00,
2013-02-09 00:56:00,56.9,52.1,29.97,WNW,302,0.0,0.0,84,0.00,,,0.00,Wunderground v.1.15,2013-02-09 05:56:00,
2013-02-09 01:02:00,56.7,51.9,29.98,WNW,302,0.0,0.0,84,0.00,,,0.00,Wunderground v.1.15,2013-02-09 06:02:00,
2013-02-09 01:07:00,56.6,51.8,29.98,WNW,302,0.0,0.0,84,0.00,,,0.00,Wunderground v.1.15,2013-02-09 06:07:00,
2013-02-09 01:12:00,56.5,51.7,29.98,WNW,302,0.0,0.0,84,0.00,,,0.00,Wunderground v.1.15,2013-02-09 06:12:00,
2013-02-09 01:17:00,56.5,51.7,29.98,WNW,302,0.0,0.0,84,0.00,,,0.00,Wunderground v.1.15,2013-02-09 06:17:00,
2013-02-09 01:22:00,56.3,51.8,29.98,WNW,302,0.0,0.0,85,0.00,,,0.00,Wunderground v.1.15,2013-02-09 06:22:00,
2013-02-09 01:28:00,56.3,51.8,29.98,WNW,302,0.0,0.0,85,0.00,,,0.00,Wunderground v.1.15,2013-02-09 06:28:00,
2013-02-09 01:33:00,56.3,51.8,29.98,WNW,302,0.0,0.0,85,0.00,,,0.00,Wunderground v.1.15,2013-02-09 06:33:00,
2013-02-09 01:38:00,56.5,52.0,29.98,WNW,302,0.0,0.0,85,0.00,,,0.00,Wunderground v.1.15,2013-02-09 06:38:00,
2013-02-09 01:44:00,56.5,52.4,29.98,WNW,302,0.0,0.0,86,0.00,,,0.00,Wunderground v.1.15,2013-02-09 06:44:00,
2013-02-09 01:49:00,56.6,52.5,29.98,WNW,302,0.0,0.0,86,0.00,,,0.00,Wunderground v.1.15,2013-02-09 06:49:00,
2013-02-09 01:55:00,56.6,52.5,29.98,WNW,302,0.0,0.0,86,0.00,,,0.00,Wunderground v.1.15,2013-02-09 06:55:00,
2013-02-09 02:00:00,56.6,52.5,29.98,WNW,302,0.0,0.0,86,0.00,,,0.00,Wunderground v.1.15,2013-02-09 07:00:00,
2013-02-09 02:05:00,56.6,52.5,29.98,WNW,302,0.0,0.0,86,0.00,,,0.00,Wunderground v.1.15,2013-02-09 07:05:00,
2013-02-09 02:10:00,56.6,52.5,29.98,WNW,302,0.0,0.0,86,0.00,,,0.00,Wunderground v.1.15,2013-02-09 07:10:00,
2013-02-09 02:15:00,56.6,52.5,29.98,WNW,302,0.0,0.0,86,0.00,,,0.01,Wunderground v.1.15,2013-02-09 07:15:00,
2013-02-09 02:20:00,56.6,52.5,29.98,WNW,302,0.0,0.0,86,0.00,,,0.01,Wunderground v.1.15,2013-02-09 07:20:00,
2013-02-09 02:25:00,56.6,52.5,29.98,WNW,302,0.0,0.0,86,0.00,,,0.01,Wunderground v.1.15,2013-02-09 07:25:00,
2013-02-09 02:30:00,56.6,52.5,29.98,WNW,302,0.0,0.0,86,0.00,,,0.01,Wunderground v.1.15,2013-02-09 07:30:00,
2013-02-09 02:35:00,56.7,52.6,29.98,WNW,302,0.0,0.0,86,0.00,,,0.01,Wunderground v.1.15,2013-02-09 07:35:00,
2013-02-09 02:40:00,56.7,52.9,29.98,NW,304,0.0,0.0,87,0.00,,,0.01,Wunderground v.1.15,2013-02-09 07:40:00,
2013-02-09 02:45:00,56.9,53.1,29.98,NW,304,0.0,0.0,87,0.00,,,0.01,Wunderground v.1.15,2013-02-09 07:45:00,
2013-02-09 02:50:00,57.0,53.2,29.98,NW,304,0.0,0.0,87,0.00,,,0.01,Wunderground v.1.15,2013-02-09 07:50:00,
2013-02-09 02:55:00,57.2,53.4,29.98,NW,304,0.0,0.0,87,0.00,,,0.01,Wunderground v.1.15,2013-02-09 07:55:00,
2013-02-09 03:00:00,57.2,53.4,29.98,NW,304,0.0,0.0,87,0.00,,,0.01,Wunderground v.1.15,2013-02-09 08:00:00,
2013-02-09 03:05:00,57.2,53.4,29.98,NW,304,0.0,0.0,87,0.00,,,0.01,Wunderground v.1.15,2013-02-09 08:05:00,
2013-02-09 03:10:00,57.2,53.4,29.98,NW,304,0.0,0.0,87,0.00,,,0.01,Wunderground v.1.15,2013-02-09 08:10:00,
2013-02-09 03:15:00,57.2,53.4,29.98,NW,304,0.0,0.0,87,0.00,,,0.01,Wunderground v.1.15,2013-02-09 08:15:00,
2013-02-09 03:20:00,57.0,53.2,29.98,NW,304,0.0,0.0,87,0.00,,,0.01,Wunderground v.1.15,2013-02-09 08:20:00,
2013-02-09 03:25:00,57.0,53.2,29.98,NNE,16,0.0,0.0,87,0.00,,,0.01,Wunderground v.1.15,2013-02-09 08:25:00,
2013-02-09 03:30:00,57.0,53.2,29.98,NNE,16,0.0,0.0,87,0.00,,,0.01,Wunderground v.1.15,2013-02-09 08:30:00,
2013-02-09 03:35:00,57.0,53.2,29.98,NNE,16,0.0,0.0,87,0.00,,,0.01,Wunderground v.1.15,2013-02-09 08:35:00,
2013-02-09 03:40:00,57.0,53.2,29.98,NNE,14,0.0,2.0,87,0.00,,,0.01,Wunderground v.1.15,2013-02-09 08:40:00,
2013-02-09 03:45:00,57.0,53.2,29.98,NNE,16,0.0,2.0,87,0.00,,,0.01,Wunderground v.1.15,2013-02-09 08:45:00,
2013-02-09 03:50:00,57.0,53.2,29.98,NNW,330,0.0,1.0,87,0.00,,,0.01,Wunderground v.1.15,2013-02-09 08:50:00,
2013-02-09 03:55:00,57.0,53.2,29.98,NE,48,0.0,5.0,87,0.00,,,0.01,Wunderground v.1.15,2013-02-09 08:55:00,
2013-02-09 04:00:00,56.9,53.1,29.98,North,352,0.0,3.0,87,0.00,,,0.01,Wunderground v.1.15,2013-02-09 09:00:00,
2013-02-09 04:05:00,57.0,53.2,29.99,NW,309,0.0,3.0,87,0.00,,,0.01,Wunderground v.1.15,2013-02-09 09:05:00,
2013-02-09 04:10:00,57.0,53.2,29.99,NNE,31,0.0,0.0,87,0.00,,,0.01,Wunderground v.1.15,2013-02-09 09:10:00,
2013-02-09 04:15:00,57.0,53.2,29.99,North,4,0.0,3.0,87,0.00,,,0.01,Wunderground v.1.15,2013-02-09 09:15:00,
2013-02-09 04:20:00,56.9,53.1,29.99,NNE,25,0.0,1.0,87,0.00,,,0.01,Wunderground v.1.15,2013-02-09 09:20:00,
2013-02-09 04:25:00,56.9,53.1,29.99,North,11,0.0,2.0,87,0.00,,,0.01,Wunderground v.1.15,2013-02-09 09:25:00,
2013-02-09 04:30:00,56.9,53.1,29.99,NE,44,0.0,1.0,87,0.00,,,0.01,Wunderground v.1.15,2013-02-09 09:30:00,
2013-02-09 04:35:00,56.7,52.9,30.00,NNW,337,0.0,3.0,87,0.00,,,0.01,Wunderground v.1.15,2013-02-09 09:35:00,
2013-02-09 04:40:00,56.6,52.8,30.00,East,88,0.0,0.0,87,0.00,,,0.01,Wunderground v.1.15,2013-02-09 09:40:00,
2013-02-09 04:45:00,56.6,52.8,30.00,East,80,0.0,2.0,87,0.00,,,0.01,Wunderground v.1.15,2013-02-09 09:45:00,
2013-02-09 04:50:00,56.5,52.7,30.00,North,7,0.0,0.0,87,0.00,,,0.01,Wunderground v.1.15,2013-02-09 09:50:00,
2013-02-09 04:55:00,56.5,52.7,30.00,East,85,0.0,0.0,87,0.00,,,0.01,Wunderground v.1.15,2013-02-09 09:55:00,
2013-02-09 05:00:00,56.3,52.5,30.01,ENE,71,0.0,1.0,87,0.00,,,0.01,Wunderground v.1.15,2013-02-09 10:00:00,
2013-02-09 05:05:00,56.2,52.4,30.01,ENE,71,0.0,1.0,87,0.00,,,0.01,Wunderground v.1.15,2013-02-09 10:05:00,
2013-02-09 05:10:00,56.2,52.4,30.01,NNE,23,0.0,0.0,87,0.00,,,0.01,Wunderground v.1.15,2013-02-09 10:10:00,
2013-02-09 05:15:00,56.2,52.4,30.01,NNW,339,1.0,10.0,87,0.00,,,0.01,Wunderground v.1.15,2013-02-09 10:15:00,
2013-02-09 05:20:00,56.0,52.2,30.01,NNW,344,0.0,1.0,87,0.00,,,0.01,Wunderground v.1.15,2013-02-09 10:20:00,
2013-02-09 05:25:00,56.0,52.2,30.01,North,357,0.0,1.0,87,0.00,,,0.01,Wunderground v.1.15,2013-02-09 10:25:00,
2013-02-09 05:31:00,56.0,52.2,30.02,North,354,0.0,0.0,87,0.00,,,0.01,Wunderground v.1.15,2013-02-09 10:31:00,
2013-02-09 05:36:00,56.0,52.2,30.02,NW,309,0.0,0.0,87,0.00,,,0.01,Wunderground v.1.15,2013-02-09 10:36:00,
2013-02-09 05:41:00,55.9,52.1,30.02,NW,308,0.0,0.0,87,0.00,,,0.01,Wunderground v.1.15,2013-02-09 10:41:00,
2013-02-09 05:46:00,55.9,52.1,30.03,North,11,0.0,6.0,87,0.00,,,0.01,Wunderground v.1.15,2013-02-09 10:46:00,
2013-02-09 05:51:00,55.9,52.1,30.03,NNW,347,0.0,0.0,87,0.00,,,0.01,Wunderground v.1.15,2013-02-09 10:51:00,
2013-02-09 05:56:00,55.9,52.1,30.03,NNW,335,6.0,6.0,87,0.00,,,0.01,Wunderground v.1.15,2013-02-09 10:56:00,
2013-02-09 06:01:00,55.9,52.1,30.03,NNE,16,0.0,0.0,87,0.00,,,0.01,Wunderground v.1.15,2013-02-09 11:01:00,
2013-02-09 06:06:00,55.7,51.9,30.03,NNW,347,0.0,5.0,87,0.00,,,0.01,Wunderground v.1.15,2013-02-09 11:06:00,
2013-02-09 06:11:00,55.7,51.9,30.03,North,0,2.0,5.0,87,0.00,,,0.01,Wunderground v.1.15,2013-02-09 11:11:00,
2013-02-09 06:16:00,55.7,51.9,30.03,North,0,3.0,6.0,87,0.00,,,0.01,Wunderground v.1.15,2013-02-09 11:16:00,
2013-02-09 06:21:00,55.7,51.9,30.03,NNE,14,0.0,4.0,87,0.00,,,0.01,Wunderground v.1.15,2013-02-09 11:21:00,
2013-02-09 06:26:00,55.7,51.9,30.03,NNE,24,0.0,5.0,87,0.00,,,0.01,Wunderground v.1.15,2013-02-09 11:26:00,
2013-02-09 06:31:00,55.6,51.8,30.03,North,357,0.0,5.0,87,0.00,,,0.01,Wunderground v.1.15,2013-02-09 11:31:00,
2013-02-09 06:36:00,55.6,51.8,30.03,North,0,0.0,6.0,87,0.00,,,0.01,Wunderground v.1.15,2013-02-09 11:36:00,
2013-02-09 06:41:00,55.4,51.6,30.03,North,0,0.0,0.0,87,0.00,,,0.01,Wunderground v.1.15,2013-02-09 11:41:00,
2013-02-09 06:46:00,55.4,51.6,30.04,North,0,0.0,7.0,87,0.00,,,0.01,Wunderground v.1.15,2013-02-09 11:46:00,
2013-02-09 06:51:00,55.3,51.5,30.04,North,352,4.0,5.0,87,0.00,,,0.01,Wunderground v.1.15,2013-02-09 11:51:00,
2013-02-09 06:56:00,55.3,51.5,30.04,North,352,3.0,6.0,87,0.00,,,0.01,Wunderground v.1.15,2013-02-09 11:56:00,
2013-02-09 07:01:00,55.1,51.3,30.04,North,7,0.0,1.0,87,0.00,,,0.01,Wunderground v.1.15,2013-02-09 12:01:00,
2013-02-09 07:06:00,55.1,51.3,30.04,North,354,2.0,5.0,87,0.00,,,0.01,Wunderground v.1.15,2013-02-09 12:06:00,
2013-02-09 07:11:00,55.0,51.2,30.04,North,3,0.0,10.0,87,0.00,,,0.01,Wunderground v.1.15,2013-02-09 12:11:00,
2013-02-09 07:16:00,55.0,51.2,30.05,North,8,3.0,10.0,87,0.00,,,0.01,Wunderground v.1.15,2013-02-09 12:16:00,
2013-02-09 07:21:00,54.8,51.0,30.05,North,0,0.0,2.0,87,0.00,,,0.01,Wunderground v.1.15,2013-02-09 12:21:00,
2013-02-09 07:26:00,54.8,51.0,30.05,North,356,0.0,2.0,87,0.00,,,0.01,Wunderground v.1.15,2013-02-09 12:26:00,
2013-02-09 07:31:00,54.7,50.9,30.06,North,0,0.0,0.0,87,0.00,,,0.01,Wunderground v.1.15,2013-02-09 12:31:00,
2013-02-09 07:36:00,54.7,50.9,30.06,NW,306,0.0,1.0,87,0.00,,,0.01,Wunderground v.1.15,2013-02-09 12:36:00,
2013-02-09 07:41:00,54.7,50.9,30.06,NE,38,0.0,0.0,87,0.00,,,0.01,Wunderground v.1.15,2013-02-09 12:41:00,
2013-02-09 07:46:00,54.5,50.7,30.06,NW,318,0.0,3.0,87,0.00,,,0.01,Wunderground v.1.15,2013-02-09 12:46:00,
2013-02-09 07:51:00,54.5,50.7,30.06,ENE,65,0.0,5.0,87,0.00,,,0.01,Wunderground v.1.15,2013-02-09 12:51:00,
2013-02-09 07:56:00,54.5,50.7,30.06,NNW,330,0.0,7.0,87,0.00,,,0.01,Wunderground v.1.15,2013-02-09 12:56:00,
2013-02-09 08:02:00,54.5,50.7,30.07,North,0,0.0,1.0,87,0.00,,,0.01,Wunderground v.1.15,2013-02-09 13:02:00,
2013-02-09 08:07:00,54.8,51.0,30.07,North,0,0.0,8.0,87,0.00,,,0.01,Wunderground v.1.15,2013-02-09 13:07:00,
2013-02-09 08:12:00,54.8,51.0,30.07,North,0,0.0,8.0,87,0.00,,,0.01,Wunderground v.1.15,2013-02-09 13:12:00,
2013-02-09 08:17:00,55.0,51.2,30.07,North,0,5.0,8.0,87,0.00,,,0.01,Wunderground v.1.15,2013-02-09 13:17:00,
2013-02-09 08:22:00,55.1,51.3,30.07,NE,55,0.0,6.0,87,0.00,,,0.01,Wunderground v.1.15,2013-02-09 13:22:00,
2013-02-09 08:27:00,55.3,51.5,30.07,NNW,332,0.0,6.0,87,0.00,,,0.01,Wunderground v.1.15,2013-02-09 13:27:00,
2013-02-09 08:32:00,55.4,51.6,30.08,North,7,0.0,6.0,87,0.00,,,0.01,Wunderground v.1.15,2013-02-09 13:32:00,
2013-02-09 08:37:00,55.4,51.6,30.08,ENE,68,0.0,10.0,87,0.00,,,0.01,Wunderground v.1.15,2013-02-09 13:37:00,
2013-02-09 08:42:00,55.4,51.3,30.08,NNW,333,1.0,8.0,86,0.00,,,0.01,Wunderground v.1.15,2013-02-09 13:42:00,
2013-02-09 08:47:00,55.6,51.5,30.08,East,83,0.0,8.0,86,0.00,,,0.01,Wunderground v.1.15,2013-02-09 13:47:00,
2013-02-09 08:52:00,55.7,51.6,30.08,ENE,76,0.0,4.0,86,0.00,,,0.01,Wunderground v.1.15,2013-02-09 13:52:00,
2013-02-09 08:57:00,55.9,51.8,30.08,North,7,0.0,4.0,86,0.00,,,0.01,Wunderground v.1.15,2013-02-09 13:57:00,
2013-02-09 09:02:00,56.2,52.1,30.08,North,1,2.0,7.0,86,0.00,,,0.01,Wunderground v.1.15,2013-02-09 14:02:00,
2013-02-09 09:07:00,56.5,52.4,30.08,North,11,0.0,7.0,86,0.00,,,0.01,Wunderground v.1.15,2013-02-09 14:07:00,
2013-02-09 09:12:00,56.9,52.4,30.08,East,89,1.0,4.0,85,0.00,,,0.01,Wunderground v.1.15,2013-02-09 14:12:00,
2013-02-09 09:17:00,57.3,52.8,30.08,ESE,107,5.0,5.0,85,0.00,,,0.01,Wunderground v.1.15,2013-02-09 14:17:00,
2013-02-09 09:22:00,57.8,53.3,30.08,NE,35,0.0,0.0,85,0.00,,,0.01,Wunderground v.1.15,2013-02-09 14:22:00,
2013-02-09 09:27:00,58.4,53.6,30.08,NNE,17,0.0,2.0,84,0.00,,,0.01,Wunderground v.1.15,2013-02-09 14:27:00,
2013-02-09 09:32:00,58.9,53.7,30.09,East,80,0.0,6.0,83,0.00,,,0.01,Wunderground v.1.15,2013-02-09 14:32:00,
2013-02-09 09:37:00,59.3,54.1,30.09,NNE,17,0.0,6.0,83,0.00,,,0.01,Wunderground v.1.15,2013-02-09 14:37:00,
2013-02-09 09:42:00,59.9,54.4,30.09,ENE,76,6.0,6.0,82,0.00,,,0.01,Wunderground v.1.15,2013-02-09 14:42:00,
2013-02-09 09:47:00,60.4,54.9,30.09,East,85,0.0,8.0,82,0.00,,,0.01,Wunderground v.1.15,2013-02-09 14:47:00,
2013-02-09 09:52:00,60.9,55.0,30.09,ENE,66,0.0,1.0,81,0.00,,,0.01,Wunderground v.1.15,2013-02-09 14:52:00,
2013-02-09 09:57:00,61.3,55.4,30.09,ENE,75,0.0,8.0,81,0.00,,,0.01,Wunderground v.1.15,2013-02-09 14:57:00,
2013-02-09 10:02:00,61.8,55.6,30.09,ENE,58,0.0,5.0,80,0.00,,,0.01,Wunderground v.1.15,2013-02-09 15:02:00,
2013-02-09 10:07:00,62.4,55.8,30.09,North,0,1.0,6.0,79,0.00,,,0.01,Wunderground v.1.15,2013-02-09 15:07:00,
2013-02-09 10:12:00,63.2,56.6,30.09,NNW,344,0.0,3.0,79,0.00,,,0.01,Wunderground v.1.15,2013-02-09 15:12:00,
2013-02-09 10:17:00,64.0,57.0,30.09,East,82,0.0,7.0,78,0.00,,,0.01,Wunderground v.1.15,2013-02-09 15:17:00,
2013-02-09 10:22:00,64.7,57.3,30.09,NNW,339,0.0,8.0,77,0.00,,,0.01,Wunderground v.1.15,2013-02-09 15:22:00,
2013-02-09 10:27:00,65.3,57.5,30.09,East,93,0.0,10.0,76,0.00,,,0.01,Wunderground v.1.15,2013-02-09 15:27:00,
2013-02-09 10:32:00,65.5,57.4,30.10,ESE,103,0.0,3.0,75,0.00,,,0.01,Wunderground v.1.15,2013-02-09 15:32:00,
2013-02-09 10:37:00,65.5,57.0,30.10,East,88,0.0,3.0,74,0.00,,,0.01,Wunderground v.1.15,2013-02-09 15:37:00,
2013-02-09 10:42:00,65.5,57.0,30.10,NE,38,1.0,5.0,74,0.00,,,0.01,Wunderground v.1.15,2013-02-09 15:42:00,
2013-02-09 10:47:00,65.8,56.9,30.10,East,83,3.0,6.0,73,0.00,,,0.01,Wunderground v.1.15,2013-02-09 15:47:00,
2013-02-09 10:52:00,66.0,57.1,30.10,NNE,16,1.0,6.0,73,0.00,,,0.01,Wunderground v.1.15,2013-02-09 15:52:00,
2013-02-09 10:57:00,66.3,57.0,30.10,East,79,6.0,8.0,72,0.00,,,0.01,Wunderground v.1.15,2013-02-09 15:57:00,
2013-02-09 11:02:00,66.6,57.3,30.10,East,92,1.0,6.0,72,0.00,,,0.01,Wunderground v.1.15,2013-02-09 16:02:00,
2013-02-09 11:07:00,66.9,57.2,30.10,North,353,0.0,6.0,71,0.00,,,0.01,Wunderground v.1.15,2013-02-09 16:07:00,
2013-02-09 11:12:00,67.3,57.2,30.10,NNE,24,0.0,1.0,70,0.00,,,0.01,Wunderground v.1.15,2013-02-09 16:12:00,
2013-02-09 11:17:00,67.9,57.8,30.09,East,100,1.0,10.0,70,0.00,,,0.01,Wunderground v.1.15,2013-02-09 16:17:00,
2013-02-09 11:22:00,68.4,57.8,30.09,NNE,25,1.0,1.0,69,0.00,,,0.01,Wunderground v.1.15,2013-02-09 16:22:00,
2013-02-09 11:27:00,68.9,57.9,30.09,East,85,1.0,11.0,68,0.00,,,0.01,Wunderground v.1.15,2013-02-09 16:27:00,
2013-02-09 11:32:00,69.3,57.9,30.09,NNE,20,2.0,7.0,67,0.00,,,0.01,Wunderground v.1.15,2013-02-09 16:32:00,
2013-02-09 11:37:00,69.8,58.3,30.09,NNW,347,6.0,9.0,67,0.00,,,0.01,Wunderground v.1.15,2013-02-09 16:37:00,
2013-02-09 11:42:00,70.4,58.5,30.09,East,96,0.0,7.0,66,0.00,,,0.01,Wunderground v.1.15,2013-02-09 16:42:00,
2013-02-09 11:47:00,70.8,58.4,30.08,NNE,23,2.0,7.0,65,0.00,,,0.01,Wunderground v.1.15,2013-02-09 16:47:00,
2013-02-09 11:52:00,71.5,58.7,30.08,North,0,0.0,6.0,64,0.00,,,0.01,Wunderground v.1.15,2013-02-09 16:52:00,
2013-02-09 11:57:00,71.8,59.0,30.08,East,85,0.0,6.0,64,0.00,,,0.01,Wunderground v.1.15,2013-02-09 16:57:00,
2013-02-09 12:02:00,72.1,58.8,30.07,North,350,0.0,1.0,63,0.00,,,0.01,Wunderground v.1.15,2013-02-09 17:02:00,
2013-02-09 12:07:00,72.3,58.5,30.07,North,6,0.0,6.0,62,0.00,,,0.01,Wunderground v.1.15,2013-02-09 17:07:00,
2013-02-09 12:12:00,72.5,58.3,30.07,East,80,0.0,2.0,61,0.00,,,0.01,Wunderground v.1.15,2013-02-09 17:12:00,
2013-02-09 12:17:00,72.8,58.6,30.07,North,354,0.0,3.0,61,0.00,,,0.01,Wunderground v.1.15,2013-02-09 17:17:00,
2013-02-09 12:22:00,73.2,58.5,30.07,North,353,6.0,8.0,60,0.00,,,0.01,Wunderground v.1.15,2013-02-09 17:22:00,
2013-02-09 12:27:00,73.3,58.1,30.07,NNE,24,0.0,8.0,59,0.00,,,0.01,Wunderground v.1.15,2013-02-09 17:27:00,
2013-02-09 12:32:00,73.7,58.0,30.06,NNW,330,3.0,12.0,58,0.00,,,0.01,Wunderground v.1.15,2013-02-09 17:32:00,
2013-02-09 12:37:00,74.0,58.3,30.06,NW,308,3.0,12.0,58,0.00,,,0.01,Wunderground v.1.15,2013-02-09 17:37:00,
2013-02-09 12:42:00,74.4,58.2,30.06,North,11,7.0,10.0,57,0.00,,,0.01,Wunderground v.1.15,2013-02-09 17:42:00,
2013-02-09 12:47:00,74.9,58.6,30.06,NW,308,0.0,10.0,57,0.00,,,0.01,Wunderground v.1.15,2013-02-09 17:47:00,
2013-02-09 12:52:00,75.3,58.0,30.06,North,0,4.0,10.0,55,0.00,,,0.01,Wunderground v.1.15,2013-02-09 17:52:00,
2013-02-09 12:58:00,75.4,58.1,30.06,North,353,0.0,10.0,55,0.00,,,0.01,Wunderground v.1.15,2013-02-09 17:58:00,
2013-02-09 13:03:00,75.8,58.0,30.05,North,349,0.0,5.0,54,0.00,,,0.01,Wunderground v.1.15,2013-02-09 18:03:00,
2013-02-09 13:08:00,76.1,57.7,30.05,North,0,6.0,7.0,53,0.00,,,0.01,Wunderground v.1.15,2013-02-09 18:08:00,
2013-02-09 13:13:00,76.5,58.1,30.05,ENE,73,0.0,4.0,53,0.00,,,0.01,Wunderground v.1.15,2013-02-09 18:13:00,
2013-02-09 13:17:00,76.8,57.8,30.04,North,0,0.0,6.0,52,0.00,,,0.01,Wunderground v.1.15,2013-02-09 18:17:00,
2013-02-09 13:22:00,77.2,57.7,30.04,North,359,0.0,0.0,51,0.00,,,0.01,Wunderground v.1.15,2013-02-09 18:22:00,
2013-02-09 13:28:00,77.4,57.3,30.04,NNW,346,6.0,8.0,50,0.00,,,0.01,Wunderground v.1.15,2013-02-09 18:28:00,
2013-02-09 13:33:00,77.7,57.6,30.04,North,350,0.0,1.0,50,0.00,,,0.01,Wunderground v.1.15,2013-02-09 18:33:00,
2013-02-09 13:38:00,77.9,57.2,30.04,East,85,0.0,6.0,49,0.00,,,0.01,Wunderground v.1.15,2013-02-09 18:38:00,
2013-02-09 13:43:00,77.9,56.6,30.04,North,353,0.0,6.0,48,0.00,,,0.01,Wunderground v.1.15,2013-02-09 18:43:00,
2013-02-09 13:48:00,77.9,56.6,30.04,North,0,0.0,6.0,48,0.00,,,0.01,Wunderground v.1.15,2013-02-09 18:48:00,
2013-02-09 13:53:00,77.9,56.0,30.04,SE,145,0.0,4.0,47,0.00,,,0.01,Wunderground v.1.15,2013-02-09 18:53:00,
2013-02-09 13:58:00,77.9,56.0,30.04,North,10,0.0,4.0,47,0.00,,,0.01,Wunderground v.1.15,2013-02-09 18:58:00,
2013-02-09 14:03:00,77.9,55.5,30.03,NW,322,0.0,3.0,46,0.00,,,0.01,Wunderground v.1.15,2013-02-09 19:03:00,
2013-02-09 14:08:00,78.1,55.6,30.03,North,349,0.0,6.0,46,0.00,,,0.01,Wunderground v.1.15,2013-02-09 19:08:00,
2013-02-09 14:13:00,77.9,54.8,30.03,NNE,25,8.0,8.0,45,0.00,,,0.01,Wunderground v.1.15,2013-02-09 19:13:00,
2013-02-09 14:18:00,78.1,55.0,30.03,North,353,0.0,8.0,45,0.00,,,0.01,Wunderground v.1.15,2013-02-09 19:18:00,
2013-02-09 14:23:00,78.3,54.6,30.03,NNE,17,0.0,6.0,44,0.00,,,0.01,Wunderground v.1.15,2013-02-09 19:23:00,
2013-02-09 14:28:00,78.5,54.8,30.03,ESE,104,0.0,6.0,44,0.00,,,0.01,Wunderground v.1.15,2013-02-09 19:28:00,
2013-02-09 14:33:00,78.3,54.0,30.02,ESE,110,0.0,0.0,43,0.00,,,0.01,Wunderground v.1.15,2013-02-09 19:33:00,
2013-02-09 14:38:00,78.3,54.0,30.02,North,353,0.0,0.0,43,0.00,,,0.01,Wunderground v.1.15,2013-02-09 19:38:00,
2013-02-09 14:43:00,78.3,53.3,30.02,ESE,113,0.0,0.0,42,0.00,,,0.01,Wunderground v.1.15,2013-02-09 19:43:00,
2013-02-09 14:48:00,78.5,54.1,30.02,SSW,192,0.0,1.0,43,0.00,,,0.01,Wunderground v.1.15,2013-02-09 19:48:00,
2013-02-09 14:53:00,78.3,55.2,30.02,West,280,0.0,1.0,45,0.00,,,0.01,Wunderground v.1.15,2013-02-09 19:53:00,
2013-02-09 14:58:00,78.5,56.0,30.02,NW,312,0.0,6.0,46,0.00,,,0.01,Wunderground v.1.15,2013-02-09 19:58:00,
2013-02-09 15:03:00,78.3,55.2,30.02,NNE,13,0.0,8.0,45,0.00,,,0.01,Wunderground v.1.15,2013-02-09 20:03:00,
2013-02-09 15:08:00,78.1,55.6,30.02,North,356,0.0,8.0,46,0.00,,,0.01,Wunderground v.1.15,2013-02-09 20:08:00,
2013-02-09 15:13:00,78.1,55.6,30.02,North,3,1.0,1.0,46,0.00,,,0.01,Wunderground v.1.15,2013-02-09 20:13:00,
2013-02-09 15:18:00,78.1,55.6,30.02,NW,319,0.0,2.0,46,0.00,,,0.01,Wunderground v.1.15,2013-02-09 20:18:00,
2013-02-09 15:23:00,77.9,56.0,30.02,NW,311,0.0,6.0,47,0.00,,,0.01,Wunderground v.1.15,2013-02-09 20:23:00,
2013-02-09 15:28:00,77.7,55.9,30.02,North,356,0.0,6.0,47,0.00,,,0.01,Wunderground v.1.15,2013-02-09 20:28:00,
2013-02-09 15:33:00,77.4,55.6,30.02,North,0,0.0,8.0,47,0.00,,,0.01,Wunderground v.1.15,2013-02-09 20:33:00,
2013-02-09 15:38:00,77.0,55.2,30.02,North,357,0.0,8.0,47,0.00,,,0.01,Wunderground v.1.15,2013-02-09 20:38:00,
2013-02-09 15:43:00,76.7,55.0,30.02,North,0,2.0,8.0,47,0.00,,,0.01,Wunderground v.1.15,2013-02-09 20:43:00,
2013-02-09 15:48:00,76.5,54.8,30.02,North,0,2.0,8.0,47,0.00,,,0.01,Wunderground v.1.15,2013-02-09 20:48:00,
2013-02-09 15:53:00,76.3,54.6,30.02,North,1,5.0,5.0,47,0.00,,,0.01,Wunderground v.1.15,2013-02-09 20:53:00,
2013-02-09 15:58:00,76.3,55.2,30.02,North,0,0.0,8.0,48,0.00,,,0.01,Wunderground v.1.15,2013-02-09 20:58:00,
2013-02-09 16:03:00,76.1,55.5,30.01,North,359,0.0,5.0,49,0.00,,,0.01,Wunderground v.1.15,2013-02-09 21:03:00,
2013-02-09 16:08:00,76.1,55.5,30.01,North,349,0.0,6.0,49,0.00,,,0.01,Wunderground v.1.15,2013-02-09 21:08:00,
2013-02-09 16:13:00,76.1,55.5,30.01,North,1,1.0,4.0,49,0.00,,,0.01,Wunderground v.1.15,2013-02-09 21:13:00,
2013-02-09 16:18:00,76.0,55.5,30.02,North,1,0.0,4.0,49,0.00,,,0.01,Wunderground v.1.15,2013-02-09 21:18:00,
2013-02-09 16:23:00,75.6,55.1,30.02,North,354,0.0,2.0,49,0.00,,,0.01,Wunderground v.1.15,2013-02-09 21:23:00,
2013-02-09 16:28:00,75.4,54.9,30.02,NE,55,0.0,2.0,49,0.00,,,0.01,Wunderground v.1.15,2013-02-09 21:28:00,
2013-02-09 16:33:00,75.3,55.4,30.02,North,3,2.0,7.0,50,0.00,,,0.01,Wunderground v.1.15,2013-02-09 21:33:00,
2013-02-09 16:38:00,75.1,55.2,30.02,North,352,0.0,7.0,50,0.00,,,0.01,Wunderground v.1.15,2013-02-09 21:38:00,
2013-02-09 16:43:00,74.7,54.8,30.02,North,0,0.0,3.0,50,0.00,,,0.01,Wunderground v.1.15,2013-02-09 21:43:00,
2013-02-09 16:48:00,74.6,55.3,30.02,NNW,346,0.0,3.0,51,0.00,,,0.01,Wunderground v.1.15,2013-02-09 21:48:00,
2013-02-09 16:53:00,74.4,55.1,30.02,North,359,0.0,7.0,51,0.00,,,0.01,Wunderground v.1.15,2013-02-09 21:53:00,
2013-02-09 16:58:00,74.0,54.7,30.02,NW,320,0.0,7.0,51,0.00,,,0.01,Wunderground v.1.15,2013-02-09 21:58:00,
2013-02-09 17:03:00,73.7,55.0,30.02,NNW,332,0.0,5.0,52,0.00,,,0.01,Wunderground v.1.15,2013-02-09 22:03:00,
2013-02-09 17:08:00,73.3,54.6,30.02,North,0,0.0,5.0,52,0.00,,,0.01,Wunderground v.1.15,2013-02-09 22:08:00,
2013-02-09 17:13:00,73.0,54.9,30.02,NNE,21,0.0,0.0,53,0.00,,,0.01,Wunderground v.1.15,2013-02-09 22:13:00,
2013-02-09 17:18:00,72.8,54.7,30.02,North,0,0.0,0.0,53,0.00,,,0.01,Wunderground v.1.15,2013-02-09 22:18:00,
2013-02-09 17:23:00,72.5,54.9,30.02,NNE,27,0.0,6.0,54,0.00,,,0.01,Wunderground v.1.15,2013-02-09 22:23:00,
2013-02-09 17:28:00,72.1,55.0,30.02,NNW,332,0.0,6.0,55,0.00,,,0.01,Wunderground v.1.15,2013-02-09 22:28:00,
2013-02-09 17:33:00,71.8,54.8,30.02,North,8,0.0,1.0,55,0.00,,,0.01,Wunderground v.1.15,2013-02-09 22:33:00,
2013-02-09 17:38:00,71.3,54.8,30.02,North,0,0.0,6.0,56,0.00,,,0.01,Wunderground v.1.15,2013-02-09 22:38:00,
2013-02-09 17:43:00,70.8,54.8,30.02,NNW,343,0.0,4.0,57,0.00,,,0.01,Wunderground v.1.15,2013-02-09 22:43:00,
2013-02-09 17:48:00,70.3,54.3,30.02,North,356,0.0,4.0,57,0.00,,,0.01,Wunderground v.1.15,2013-02-09 22:48:00,
2013-02-09 17:53:00,69.9,54.4,30.02,North,353,0.0,0.0,58,0.00,,,0.01,Wunderground v.1.15,2013-02-09 22:53:00,
2013-02-09 17:58:00,69.6,54.6,30.02,North,3,0.0,2.0,59,0.00,,,0.01,Wunderground v.1.15,2013-02-09 22:58:00,
2013-02-09 18:03:00,69.3,54.4,30.02,North,11,0.0,3.0,59,0.00,,,0.01,Wunderground v.1.15,2013-02-09 23:03:00,
2013-02-09 18:08:00,68.9,54.4,30.02,North,0,0.0,3.0,60,0.00,,,0.01,Wunderground v.1.15,2013-02-09 23:08:00,
2013-02-09 18:13:00,68.6,54.2,30.02,North,8,0.0,0.0,60,0.00,,,0.01,Wunderground v.1.15,2013-02-09 23:13:00,
2013-02-09 18:18:00,68.4,54.4,30.01,North,0,0.0,0.0,61,0.00,,,0.01,Wunderground v.1.15,2013-02-09 23:18:00,
2013-02-09 18:23:00,68.1,54.1,30.01,North,0,0.0,0.0,61,0.00,,,0.01,Wunderground v.1.15,2013-02-09 23:23:00,
2013-02-09 18:28:00,67.9,54.4,30.01,North,0,0.0,0.0,62,0.00,,,0.01,Wunderground v.1.15,2013-02-09 23:28:00,
2013-02-09 18:33:00,67.8,54.3,30.02,North,0,0.0,0.0,62,0.00,,,0.01,Wunderground v.1.15,2013-02-09 23:33:00,
2013-02-09 18:38:00,67.6,54.6,30.02,North,0,0.0,0.0,63,0.00,,,0.01,Wunderground v.1.15,2013-02-09 23:38:00,
2013-02-09 18:43:00,67.4,54.4,30.02,North,0,0.0,0.0,63,0.00,,,0.01,Wunderground v.1.15,2013-02-09 23:43:00,
2013-02-09 18:48:00,67.1,54.1,30.02,North,0,0.0,0.0,63,0.00,,,0.01,Wunderground v.1.15,2013-02-09 23:48:00,
2013-02-09 18:53:00,66.9,54.3,30.02,North,0,0.0,0.0,64,0.00,,,0.01,Wunderground v.1.15,2013-02-09 23:53:00,
2013-02-09 18:58:00,66.8,54.2,30.02,North,0,0.0,0.0,64,0.00,,,0.01,Wunderground v.1.15,2013-02-09 23:58:00,
2013-02-09 19:03:00,66.6,54.0,30.02,North,0,0.0,0.0,64,0.00,,,0.01,Wunderground v.1.15,2013-02-10 00:03:00,
2013-02-09 19:08:00,66.4,53.8,30.02,North,0,0.0,0.0,64,0.00,,,0.01,Wunderground v.1.15,2013-02-10 00:08:00,
2013-02-09 19:13:00,66.1,54.0,30.02,North,0,0.0,0.0,65,0.00,,,0.01,Wunderground v.1.15,2013-02-10 00:13:00,
2013-02-09 19:18:00,66.0,54.3,30.03,North,0,0.0,0.0,66,0.00,,,0.01,Wunderground v.1.15,2013-02-10 00:18:00,
2013-02-09 19:24:00,65.6,53.9,30.03,North,0,0.0,0.0,66,0.00,,,0.01,Wunderground v.1.15,2013-02-10 00:24:00,
2013-02-09 19:29:00,65.5,53.8,30.03,North,0,0.0,0.0,66,0.00,,,0.01,Wunderground v.1.15,2013-02-10 00:29:00,
2013-02-09 19:34:00,65.3,54.1,30.03,North,0,0.0,0.0,67,0.00,,,0.01,Wunderground v.1.15,2013-02-10 00:34:00,
2013-02-09 19:39:00,65.0,53.8,30.03,North,0,0.0,0.0,67,0.00,,,0.01,Wunderground v.1.15,2013-02-10 00:39:00,
2013-02-09 19:44:00,64.8,53.6,30.03,North,0,0.0,0.0,67,0.00,,,0.01,Wunderground v.1.15,2013-02-10 00:44:00,
2013-02-09 19:49:00,64.7,53.5,30.04,North,0,0.0,0.0,67,0.00,,,0.01,Wunderground v.1.15,2013-02-10 00:49:00,
2013-02-09 19:54:00,64.3,53.5,30.04,North,0,0.0,0.0,68,0.00,,,0.01,Wunderground v.1.15,2013-02-10 00:54:00,
2013-02-09 19:59:00,64.2,53.4,30.04,North,0,0.0,0.0,68,0.00,,,0.01,Wunderground v.1.15,2013-02-10 00:59:00,
2013-02-09 20:04:00,63.9,53.1,30.04,North,0,0.0,0.0,68,0.00,,,0.01,Wunderground v.1.15,2013-02-10 01:04:00,
2013-02-09 20:09:00,63.7,52.9,30.04,North,0,0.0,0.0,68,0.00,,,0.01,Wunderground v.1.15,2013-02-10 01:09:00,
2013-02-09 20:14:00,63.5,53.1,30.04,North,0,0.0,0.0,69,0.00,,,0.01,Wunderground v.1.15,2013-02-10 01:14:00,
2013-02-09 20:19:00,63.4,53.0,30.05,North,0,0.0,0.0,69,0.00,,,0.01,Wunderground v.1.15,2013-02-10 01:19:00,
2013-02-09 20:24:00,63.4,53.4,30.05,North,0,0.0,0.0,70,0.00,,,0.01,Wunderground v.1.15,2013-02-10 01:24:00,
2013-02-09 20:29:00,63.1,53.2,30.05,North,0,0.0,0.0,70,0.00,,,0.01,Wunderground v.1.15,2013-02-10 01:29:00,
2013-02-09 20:34:00,62.9,53.0,30.05,North,0,0.0,0.0,70,0.00,,,0.01,Wunderground v.1.15,2013-02-10 01:34:00,
2013-02-09 20:39:00,62.7,52.8,30.05,North,0,0.0,0.0,70,0.00,,,0.01,Wunderground v.1.15,2013-02-10 01:39:00,
2013-02-09 20:44:00,62.6,52.3,30.05,East,95,0.0,0.0,69,0.00,,,0.01,Wunderground v.1.15,2013-02-10 01:44:00,
2013-02-09 20:49:00,62.6,52.3,30.06,NE,56,0.0,0.0,69,0.00,,,0.01,Wunderground v.1.15,2013-02-10 01:49:00,
2013-02-09 20:54:00,62.6,52.3,30.06,East,85,0.0,6.0,69,0.00,,,0.01,Wunderground v.1.15,2013-02-10 01:54:00,
2013-02-09 20:59:00,62.7,52.4,30.06,ENE,72,0.0,0.0,69,0.00,,,0.01,Wunderground v.1.15,2013-02-10 01:59:00,
2013-02-09 21:04:00,62.7,52.4,30.06,East,88,0.0,1.0,69,0.00,,,0.01,Wunderground v.1.15,2013-02-10 02:04:00,
2013-02-09 21:09:00,63.1,53.2,30.06,East,93,2.0,2.0,70,0.00,,,0.01,Wunderground v.1.15,2013-02-10 02:09:00,
2013-02-09 21:14:00,63.2,52.9,30.06,East,88,0.0,8.0,69,0.00,,,0.01,Wunderground v.1.15,2013-02-10 02:14:00,
2013-02-09 21:19:00,63.4,53.0,30.07,ENE,65,0.0,0.0,69,0.00,,,0.01,Wunderground v.1.15,2013-02-10 02:19:00,
2013-02-09 21:24:00,63.5,53.1,30.07,ENE,72,0.0,3.0,69,0.00,,,0.01,Wunderground v.1.15,2013-02-10 02:24:00,
2013-02-09 21:29:00,63.7,53.3,30.07,East,82,0.0,0.0,69,0.00,,,0.01,Wunderground v.1.15,2013-02-10 02:29:00,
2013-02-09 21:34:00,63.7,53.3,30.07,ENE,64,0.0,5.0,69,0.00,,,0.01,Wunderground v.1.15,2013-02-10 02:34:00,
2013-02-09 21:39:00,63.7,53.3,30.07,ENE,76,0.0,0.0,69,0.00,,,0.01,Wunderground v.1.15,2013-02-10 02:39:00,
2013-02-09 21:44:00,63.7,53.3,30.07,East,93,0.0,0.0,69,0.00,,,0.01,Wunderground v.1.15,2013-02-10 02:44:00,
2013-02-09 21:49:00,63.7,53.3,30.07,East,85,0.0,0.0,69,0.00,,,0.01,Wunderground v.1.15,2013-02-10 02:49:00,
2013-02-09 21:54:00,63.7,53.3,30.07,East,89,0.0,2.0,69,0.00,,,0.01,Wunderground v.1.15,2013-02-10 02:54:00,
2013-02-09 21:59:00,63.5,53.1,30.07,ENE,66,0.0,6.0,69,0.00,,,0.01,Wunderground v.1.15,2013-02-10 02:59:00,
2013-02-09 22:04:00,63.4,53.0,30.08,ENE,76,0.0,6.0,69,0.00,,,0.01,Wunderground v.1.15,2013-02-10 03:04:00,
2013-02-09 22:09:00,63.4,53.0,30.08,East,89,0.0,2.0,69,0.00,,,0.01,Wunderground v.1.15,2013-02-10 03:09:00,
2013-02-09 22:14:00,63.4,53.0,30.08,East,92,0.0,7.0,69,0.00,,,0.01,Wunderground v.1.15,2013-02-10 03:14:00,
2013-02-09 22:19:00,63.2,52.9,30.08,East,95,0.0,1.0,69,0.00,,,0.01,Wunderground v.1.15,2013-02-10 03:19:00,
2013-02-09 22:24:00,63.2,52.9,30.08,East,82,0.0,8.0,69,0.00,,,0.01,Wunderground v.1.15,2013-02-10 03:24:00,
2013-02-09 22:29:00,63.1,52.8,30.08,East,96,0.0,5.0,69,0.00,,,0.01,Wunderground v.1.15,2013-02-10 03:29:00,
2013-02-09 22:34:00,62.9,53.0,30.08,East,86,7.0,8.0,70,0.00,,,0.01,Wunderground v.1.15,2013-02-10 03:34:00,
2013-02-09 22:39:00,62.7,52.8,30.08,ENE,66,0.0,1.0,70,0.00,,,0.01,Wunderground v.1.15,2013-02-10 03:39:00,
2013-02-09 22:44:00,62.6,52.7,30.08,East,93,0.0,10.0,70,0.00,,,0.01,Wunderground v.1.15,2013-02-10 03:44:00,
2013-02-09 22:49:00,62.6,52.7,30.08,East,93,0.0,2.0,70,0.00,,,0.01,Wunderground v.1.15,2013-02-10 03:49:00,
2013-02-09 22:54:00,62.4,52.5,30.08,ENE,62,0.0,6.0,70,0.00,,,0.01,Wunderground v.1.15,2013-02-10 03:54:00,
2013-02-09 22:59:00,62.3,52.4,30.08,East,85,0.0,7.0,70,0.00,,,0.01,Wunderground v.1.15,2013-02-10 03:59:00,
2013-02-09 23:04:00,62.3,52.4,30.08,East,82,0.0,8.0,70,0.00,,,0.01,Wunderground v.1.15,2013-02-10 04:04:00,
2013-02-09 23:10:00,62.1,52.2,30.08,East,92,0.0,1.0,70,0.00,,,0.01,Wunderground v.1.15,2013-02-10 04:10:00,
2013-02-09 23:15:00,62.0,52.1,30.08,ENE,75,0.0,8.0,70,0.00,,,0.01,Wunderground v.1.15,2013-02-10 04:15:00,
2013-02-09 23:20:00,62.0,52.5,30.08,East,100,0.0,1.0,71,0.00,,,0.01,Wunderground v.1.15,2013-02-10 04:20:00,
2013-02-09 23:25:00,61.8,52.3,30.08,ENE,69,0.0,7.0,71,0.00,,,0.01,Wunderground v.1.15,2013-02-10 04:25:00,
2013-02-09 23:30:00,61.8,52.3,30.08,East,89,0.0,1.0,71,0.00,,,0.01,Wunderground v.1.15,2013-02-10 04:30:00,
2013-02-09 23:35:00,61.6,52.1,30.08,East,82,0.0,1.0,71,0.00,,,0.01,Wunderground v.1.15,2013-02-10 04:35:00,
2013-02-09 23:40:00,61.5,52.0,30.08,East,85,0.0,7.0,71,0.00,,,0.01,Wunderground v.1.15,2013-02-10 04:40:00,
2013-02-09 23:45:00,61.3,51.8,30.08,ENE,62,0.0,10.0,71,0.00,,,0.01,Wunderground v.1.15,2013-02-10 04:45:00,
2013-02-09 23:50:00,61.3,52.2,30.08,NE,54,0.0,5.0,72,0.00,,,0.01,Wunderground v.1.15,2013-02-10 04:50:00,
2013-02-09 23:55:00,61.2,52.1,30.08,ENE,75,0.0,6.0,72,0.00,,,0.01,Wunderground v.1.15,2013-02-10 04:55:00,